STARLINK-33949 (64105 NORAD) Tracking and Keplerian Element Data

This shows tracking and keplerian element data for the satellite.

Feedback or suggestion? Click here.




ElementValue
Catalog64105
NameSTARLINK-33949
Epoch Orbit3369
Epoch Day354.09776619
Epoch Year2025
RAAN36.6731
Inclination53.1583
Eccentricity0.0001308
Argument of Perigee111.9329
Mean Anonmoly248.1811
Mean Motion15.30203031
Decay Rate0.00015001
L11 64105U 25110K 25354.09776619 .00015001 00000+0 51754-3 0 9990
L22 64105 53.1583 36.6731 0001308 111.9329 248.1811 15.30203031 33691



Live tracking and technical data element details for STARLINK-33949 (NORAD 64105). STARLINK-33949 can be tracked NOW for your location showing map with azimuth and elevation plus other details from your city location.







IsCatalogInMostPopularTable: catalog: 64105, numindb: 4
Update: records affected: 1



GetName: 64105 STARLINK-33949

Hit Count: updated at: Wed, 15 Apr 2026 01:21:35 GMT